Home > Weather > Nzérékoré > Past weeks

Flag for Guinea Past Weather in Nzérékoré, Guinea — Yesterday and Last 2 Weeks

Now
82 °F

Partly sunny.


Feels Like: 88 °F
Forecast: 69 / 77 °F
Wind: 9 mph from West

Location: Roberts Field

Current Time: Jul 23, 2016 at 11:19:13 AM

Latest Report: Jul 23, 2016 at 11:00 AM


Visibility: N/A

Pressure: 29.98 "Hg

Humidity: 74%

Dew Point: 73 °F

Location of NzérékoréLocation

Past Weather in Nzérékoré — Graph

°F

Nzérékoré Temperature Yesterday

Maximum temperature yesterday: 84 °F (at 1:00 PM)
Minimum temperature yesterday: 75 °F (at 5:00 AM)
Average temperature yesterday: 79 °F

High & Low Weather Summary for the Past Weeks

 TemperatureHumidityPressure
High86 °F (Jul 9, 3:00 PM)94% (Jul 8, 7:30 PM)30.04 "Hg (Jul 8, 7:30 PM)
Low72 °F (Jul 10, 6:30 AM)62% (Jul 13, 1:30 PM)29.86 "Hg (Jul 15, 3:00 PM)
Average78 °F87%29.95 "Hg
* Reported Jul 8 10:00 AM — Jul 23 10:00 AM, Nzérékoré, Weather by CustomWeather, © 2016

Note: Actual official high and low records may vary slightly from our data, if they occured in-between our weather recording intervals... More about our weather records

Advertising

Nzérékoré Weather History for the Previous 24 Hours

Scroll right to see more
 ConditionsComfort  
Time TempWeatherWind HumidityBarometerVisibility
10:00 AM
Sat, Jul 23
81 °FPartly sunny.12 mph79%29.98 "HgN/A
9:30 AM81 °FPartly sunny.7 mph79%29.98 "HgN/A
9:00 AM81 °FScattered clouds.9 mph79%29.98 "HgN/A
8:30 AM79 °FPartly sunny.6 mph84%29.98 "HgN/A
8:00 AM77 °FScattered clouds.No wind89%29.95 "HgN/A
7:30 AM75 °FPassing clouds.No wind94%29.95 "HgN/A
7:00 AM75 °FPassing clouds.No wind94%29.95 "HgN/A
6:30 AM75 °FPartly cloudy.No wind94%29.95 "HgN/A
6:00 AM75 °FPartly cloudy.No wind94%29.95 "HgN/A
5:30 AM75 °FPassing clouds.No wind94%29.95 "HgN/A
5:00 AM75 °FPassing clouds.No wind94%29.95 "HgN/A
4:30 AM75 °FPassing clouds.No wind94%29.95 "HgN/A
3:00 AM75 °FPassing clouds.No wind89%29.95 "HgN/A
2:00 AM77 °FPartly cloudy.No wind83%29.95 "HgN/A
1:30 AM77 °FPartly cloudy.No wind83%29.98 "HgN/A
1:00 AM77 °FPartly cloudy.No wind83%29.98 "HgN/A
12:30 AM77 °FPartly cloudy.No wind83%29.98 "HgN/A
11:30 PM
Fri, Jul 22
77 °FPartly cloudy.No wind83%29.98 "HgN/A
11:00 PM77 °FPartly cloudy.No wind83%29.98 "HgN/A
10:30 PM75 °FPassing clouds.No wind89%29.98 "HgN/A
10:00 PM75 °FPassing clouds.No wind89%29.98 "HgN/A
9:30 PM77 °FPassing clouds.No wind83%29.98 "HgN/A
9:00 PM77 °FPassing clouds.No wind83%29.95 "HgN/A
7:30 PM77 °FScattered clouds.No wind83%29.95 "HgN/A
7:00 PM77 °FBroken clouds.No wind83%29.95 "HgN/A
6:30 PM79 °FBroken clouds.No wind79%29.95 "HgN/A
6:00 PM81 °FPartly sunny.No wind74%29.92 "HgN/A
5:30 PM81 °FPartly sunny.13 mph74%29.92 "HgN/A
5:00 PM81 °FPartly sunny.14 mph74%29.92 "HgN/A
4:30 PM82 °FPartly sunny.12 mph74%29.95 "HgN/A
4:00 PM81 °FPartly sunny.9 mph74%29.92 "HgN/A
3:30 PM84 °FPartly sunny.12 mph66%29.95 "HgN/A
3:00 PM84 °FPartly sunny.12 mph66%29.95 "HgN/A
2:30 PM82 °FPartly sunny.12 mph74%29.95 "HgN/A
2:00 PM84 °FPartly sunny.10 mph70%29.98 "HgN/A
1:30 PM84 °FPartly sunny.12 mph70%29.98 "HgN/A
1:00 PM84 °FPartly sunny.14 mph70%29.98 "HgN/A
12:30 PM82 °FWarm.12 mph70%29.98 "HgN/A
12:00 PM82 °FPartly sunny.12 mph74%29.98 "HgN/A
11:30 AM82 °FPartly sunny.12 mph70%29.98 "HgN/A
11:00 AM82 °FPartly sunny.10 mph74%30.01 "HgN/A
Weather by CustomWeather, © 2016

See weather overviewHow to use our weather pages